Tracking 21076 objects as of 8-Aug-2020
HD Live streaming from Space Station
objects crossing your sky now

SSA

Track SSA now!
10-day predictions
SSA is classified as:


NORAD ID: 13844
Int'l Code: 1983-008E
Perigee: 387.9 km
Apogee: 1,729.1 km
Inclination: 63.3 °
Period: 106.2 minutes
Semi major axis: 7429 km
RCS: Unknown
Launch date: February 9, 1983
Source: United States (US)
Launch site: AIR FORCE WESTERN TEST RANGE (AFWTR)
aabbcc
Your satellite tracking list
Your tracking list is empty




NASA's NSSDC Master Catalog

Two Line Element Set (TLE):
1 13844U 83008E   20220.52261965 +.00001356 +00000-0 +11856-3 0  9990
2 13844 063.2975 051.6307 0902664 096.3702 274.0787 13.55704001066766
Source of the keplerian elements: McCants